Location: �terpigny
(49.8910°N, 2.9249°E)
Time: 23:36:56
(UTC+00:00)

CUTE 1.7 + AOD 2 - Visible Passes

Search period start: 27 June 2022 00:00
Search period end: 07 July 2022 00:00
Orbit: 590 x 607 km, 97.7° (Epoch: 27 June)

Date Brightness Start Highest point End Pass type
(mag) Time Alt. Az. Time Alt. Az. Time Alt. Az.
02 Jul ? 02:20:52 10° ENE 02:21:47 11° E 02:22:41 10° E visible
03 Jul ? 02:30:34 10° ENE 02:32:43 14° E 02:34:51 10° ESE visible
04 Jul ? 02:40:50 10° NE 02:43:39 17° E 02:46:26 10° SE visible
05 Jul ? 02:51:16 10° NE 02:54:33 22° E 02:57:48 10° SE visible
06 Jul ? 03:01:49 10° NE 03:05:26 27° E 03:09:01 10° SSE visible
